TimeEST,TemperatureF,Dew PointF,Humidity,Sea Level PressureIn,VisibilityMPH,Wind Direction,Wind SpeedMPH,Gust SpeedMPH,PrecipitationIn,Events,Conditions,WindDirDegrees,DateUTC
12:53 AM,41.0,37.0,86,29.90,10.0,Calm,Calm,-,N/A,,Overcast,0,2012-11-07 05:53:00
1:53 AM,41.0,37.0,86,29.88,10.0,Calm,Calm,-,N/A,,Overcast,0,2012-11-07 06:53:00
2:53 AM,39.9,37.0,89,29.88,9.0,Calm,Calm,-,N/A,,Overcast,0,2012-11-07 07:53:00
3:53 AM,39.9,33.1,77,29.87,9.0,ENE,3.5,-,0.00,Rain,Light Rain,70,2012-11-07 08:53:00
4:53 AM,37.9,35.1,89,29.87,7.0,Calm,Calm,-,0.01,Rain,Light Rain,0,2012-11-07 09:53:00
5:53 AM,37.9,35.1,89,29.87,7.0,Calm,Calm,-,0.00,,Light Drizzle,0,2012-11-07 10:53:00
6:53 AM,37.9,34.0,86,29.87,6.0,Calm,Calm,-,0.00,,Light Drizzle,0,2012-11-07 11:53:00
7:53 AM,37.9,34.0,86,29.89,6.0,Calm,Calm,-,0.00,Rain,Light Rain,0,2012-11-07 12:53:00
8:37 AM,39.2,33.8,81,29.91,5.0,Calm,Calm,-,0.00,Rain,Light Rain,0,2012-11-07 13:37:00
8:53 AM,39.0,35.1,86,29.90,5.0,Calm,Calm,-,0.00,Rain,Light Rain,0,2012-11-07 13:53:00
9:32 AM,39.2,35.6,87,29.92,2.5,Calm,Calm,-,0.01,Rain,Light Rain,0,2012-11-07 14:32:00
9:53 AM,39.9,37.0,89,29.90,2.5,Calm,Calm,-,0.01,Rain,Light Rain,0,2012-11-07 14:53:00
10:43 AM,41.0,39.2,93,29.92,2.0,Calm,Calm,-,0.01,Rain,Light Rain,0,2012-11-07 15:43:00
10:53 AM,41.0,37.9,89,29.91,2.0,Calm,Calm,-,0.02,Rain,Light Rain,0,2012-11-07 15:53:00
11:34 AM,42.8,39.2,87,29.92,2.5,Calm,Calm,-,0.00,Rain,Light Rain,0,2012-11-07 16:34:00
11:53 AM,42.1,39.0,89,29.90,2.5,Calm,Calm,-,0.00,Rain,Light Rain,0,2012-11-07 16:53:00
12:44 PM,44.6,41.0,87,29.90,6.0,Calm,Calm,-,0.00,,Overcast,0,2012-11-07 17:44:00
12:53 PM,45.0,39.9,82,29.88,9.0,NNW,3.5,-,0.00,,Overcast,330,2012-11-07 17:53:00
1:17 PM,44.6,39.2,81,29.89,10.0,NNE,3.5,-,0.00,Rain,Light Rain,20,2012-11-07 18:17:00
1:53 PM,45.0,39.0,80,29.87,10.0,Calm,Calm,-,0.00,Rain,Light Rain,0,2012-11-07 18:53:00
2:43 PM,46.4,39.2,76,29.89,10.0,Calm,Calm,-,0.00,Rain,Light Rain,0,2012-11-07 19:43:00
2:53 PM,48.0,39.0,71,29.87,10.0,Calm,Calm,-,0.00,,Overcast,0,2012-11-07 19:53:00
3:07 PM,46.4,39.2,76,29.89,10.0,Calm,Calm,-,N/A,,Overcast,0,2012-11-07 20:07:00
3:53 PM,46.0,39.9,79,29.89,10.0,NNW,6.9,-,N/A,,Overcast,330,2012-11-07 20:53:00
4:53 PM,45.0,39.9,82,29.91,10.0,WNW,5.8,-,N/A,,Overcast,290,2012-11-07 21:53:00
5:53 PM,43.0,39.9,89,29.94,10.0,West,5.8,-,N/A,,Overcast,260,2012-11-07 22:53:00
6:53 PM,42.1,39.0,89,29.96,10.0,Variable,3.5,-,N/A,,Mostly Cloudy,0,2012-11-07 23:53:00
7:53 PM,39.0,37.9,96,29.98,10.0,SW,4.6,-,N/A,,Mostly Cloudy,220,2012-11-08 00:53:00
8:53 PM,39.9,37.9,93,30.00,10.0,SW,4.6,-,N/A,,Mostly Cloudy,230,2012-11-08 01:53:00
9:53 PM,39.9,37.9,93,30.02,10.0,SSW,3.5,-,N/A,,Overcast,210,2012-11-08 02:53:00
10:53 PM,37.9,37.0,97,30.03,8.0,Calm,Calm,-,N/A,,Mostly Cloudy,0,2012-11-08 03:53:00
11:53 PM,39.0,37.0,93,30.03,6.0,Calm,Calm,-,N/A,,Mostly Cloudy,0,2012-11-08 04:53:00